Dutch Harbor, AK

10:01 PM AKDT on April 23, 2017 (GMT -0800)
Unalaska

Weather History for PADU - November, 2012

Change the Weather History Date:

Wednesday, November 7, 2012

  Actual Average Record
Temperature  
Mean Temperature 43 °F -  
Max Temperature 50 °F 45 °F 53 °F (2003)
Min Temperature 36 °F 31 °F 16 °F (1985)
Degree Days  
Heating Degree Days 22    
Moisture  
Dew Point 38 °F    
Average Humidity 80    
Maximum Humidity 89    
Minimum Humidity 67    
Precipitation  
Precipitation 0.23 in - - ()
Sea Level Pressure  
Sea Level Pressure 29.87 in    
Wind  
Wind Speed 12 mph (SSE)    
Max Wind Speed 24 mph    
Max Gust Speed 37 mph    
Visibility 9 miles    
Events Rain    
Averages and records for this station are not official NWS values.
T = Trace of Precipitation, MM = Missing Value Source: NWS Daily Summary

Daily Weather History Graph

Daily Weather History Graph

Search for Another Location

Airport or City:

Trip Planner

Search our weather history database for the weather conditions in past years. The results will help you decide how hot, cold, wet, or windy it might be!

Date:

Astronomy

Nov. 07, 2012 Rise Set
Actual Time 9:19 AM AKST 6:19 PM AKST
Civil Twilight 8:41 AM AKST 6:57 PM AKST
Nautical Twilight 7:58 AM AKST 7:40 PM AKST
Astronomical Twilight 7:17 AM AKST 8:21 PM AKST
Moon 1:27 AM AKST (11/7) 3:28 PM AKST (11/7)
Length of Visible Light 10h 16m
Length of Day
8h 59m
Last Quarter, 41% of the Moon is Illuminated
Nov 7
Last Quarter
Nov 13
New
Nov 20
First Quarter
Nov 28
Full
Dec 6
Last Quarter

Hourly Weather History & Observations

Time (AKST) Temp. Windchill Dew Point Humidity Pressure Visibility Wind Dir Wind Speed Gust Speed Precip Events Conditions
12:56 AM 37.0 °F 31.0 °F 27.0 °F 67% 30.26 in 10.0 mi SE 8.1 mph - N/A   Overcast
1:56 AM 37.9 °F 30.5 °F 28.0 °F 68% 30.23 in 10.0 mi ESE 11.5 mph - N/A   Overcast
2:56 AM 37.9 °F 28.5 °F 28.0 °F 68% 30.20 in 10.0 mi SE 17.3 mph - N/A   Overcast
3:56 AM 37.9 °F 26.8 °F 28.9 °F 70% 30.17 in 10.0 mi ESE 24.2 mph 28.8 mph N/A   Overcast
4:56 AM 37.0 °F 28.1 °F 30.0 °F 76% 30.12 in 10.0 mi ESE 15.0 mph 28.8 mph 0.00 in Rain Light Rain
5:56 AM 36.0 °F 28.5 °F 30.9 °F 82% 30.09 in 10.0 mi SE 10.4 mph 18.4 mph 0.01 in Rain Light Rain
6:56 AM 37.0 °F 26.4 °F 30.9 °F 79% 30.03 in 10.0 mi ESE 20.7 mph 28.8 mph 0.03 in Rain Light Rain
7:56 AM 37.9 °F 29.6 °F 32.0 °F 79% 29.99 in 10.0 mi SE 13.8 mph 19.6 mph 0.04 in Rain Light Rain
8:56 AM 39.0 °F 33.4 °F 34.0 °F 82% 29.95 in 8.0 mi SSE 8.1 mph 28.8 mph 0.04 in Rain Light Rain
9:56 AM 41.0 °F 34.7 °F 36.0 °F 82% 29.91 in 8.0 mi ESE 10.4 mph 19.6 mph 0.03 in Rain Light Rain
10:39 AM 42.8 °F 34.0 °F 37.4 °F 81% 29.84 in 4.0 mi ESE 20.7 mph 36.8 mph 0.02 in Rain Light Rain
10:56 AM 43.0 °F 34.0 °F 37.9 °F 82% 29.84 in 4.0 mi East 21.9 mph 31.1 mph 0.02 in Rain Light Rain
11:09 AM 42.8 °F 34.3 °F 39.2 °F 87% 29.81 in 6.0 mi ESE 19.6 mph 27.6 mph 0.00 in Rain Light Rain
11:32 AM 42.8 °F 38.6 °F 39.2 °F 87% 29.79 in 8.0 mi Variable 6.9 mph - 0.00 in Rain Light Rain
11:56 AM 43.0 °F 37.2 °F 39.9 °F 89% 29.79 in 8.0 mi South 10.4 mph - 0.00 in Rain Light Rain
12:56 PM 44.1 °F 40.8 °F 41.0 °F 89% 29.75 in 8.0 mi South 5.8 mph - 0.03 in Rain Light Rain
1:08 PM 44.6 °F - 41.0 °F 87% 29.73 in 10.0 mi Calm Calm - 0.00 in Rain Light Rain
1:28 PM 46.4 °F 42.9 °F 41.0 °F 81% 29.73 in 8.0 mi SW 6.9 mph - 0.03 in Rain Rain
1:56 PM 46.9 °F - 42.1 °F 83% 29.71 in 10.0 mi SSW 9.2 mph - 0.03 in Rain Light Rain
2:56 PM 48.9 °F - 43.0 °F 80% 29.71 in 10.0 mi SSE 8.1 mph - 0.00 in   Scattered Clouds
3:56 PM 48.9 °F - 43.0 °F 80% 29.70 in 10.0 mi SSE 12.7 mph - N/A   Clear
4:56 PM 48.9 °F - 43.0 °F 80% 29.70 in 7.0 mi South 11.5 mph - N/A   Mostly Cloudy
5:56 PM 50.0 °F - 44.1 °F 80% 29.71 in 10.0 mi SSW 9.2 mph - N/A   Partly Cloudy
6:56 PM 46.9 °F - 42.1 °F 83% 29.71 in 10.0 mi South 4.6 mph - N/A   Partly Cloudy
7:56 PM 48.9 °F - 44.1 °F 83% 29.71 in 10.0 mi South 10.4 mph - N/A   Clear
8:56 PM 50.0 °F - 44.1 °F 80% 29.73 in 10.0 mi South 4.6 mph - N/A   Clear
9:56 PM 50.0 °F - 45.0 °F 83% 29.73 in 10.0 mi South 5.8 mph - N/A   Clear
10:56 PM 48.0 °F - 44.1 °F 86% 29.74 in 10.0 mi Calm Calm - N/A   Clear
11:56 PM 50.0 °F - 44.1 °F 80% 29.74 in 10.0 mi South 4.6 mph - N/A   Clear